Location: Unspecified
(41.5000°N, 0.0000°E)
Time: 14:43:33
(UTC+00:00)

Vanguard 1 - Pass Details

Date: 19 June 2019
Orbit: 653 x 3830 km, 34.3° (Epoch: 20 July)

Event Time Altitude Azimuth Distance (km) Brightness Sun altitude
Exits shadow 00:17:16 16° 144° (SE) 5,360 13.3 -25.0°
Maximum altitude 00:17:25 16° 144° (SE) 5,348 13.3 -25.0°
Drops below altitude 10° 00:25:44 10° 111° (ESE) 5,145 13.6 -24.8°
Sets 00:31:07 0° 93° (E) 5,569 14.0 -24.7°
